Regional Weather Roundup
Issued by NWS Kansas City/Pleasant Hill, MO

Home | Current Version | Previous Version | Text Only | Print | Product List | Glossary On
Versions: 1 2 3 4 5 6 7 8 9 10 11 12 13 14 15 16 17 18 19 20 21 22 23 24 25 26 27 28 29 30 31 32 33 34 35 36 37 38 39 40 41 42 43 44 45 46 47 48 49 50
137
ASUS43 KEAX 241010
RWREAX

WEATHER ROUNDUP FOR EASTERN KANSAS AND NORTHWEST MISSOURI
NATIONAL WEATHER SERVICE KANSAS CITY/PLEASANT HILL MO
500 AM CDT SUN SEP 24 2017

KSZ040-057-103>105-MOZ028-029-037-043-241100-
...KANSAS CITY METROPOLITAN AREA...

CITY           SKY/WX    TMP DP  RH WIND       PRES   REMARKS
K.C. INTL      CLEAR     71  66  84 S9        29.95S
K.C. DOWNTOWN  CLEAR     78  66  66 S8        29.94S
LEES SUMMIT    CLEAR     72  67  84 S9        29.97R
OLATHE - IXD   CLEAR     71  65  81 S8        29.96R
OLATHE - OJC   CLEAR     68  66  93 S6        29.96R
LAWRENCE       CLEAR     67  65  93 CALM      29.94R

$$

MOZ001>008-011>017-020>025-030>033-038>040-044>046-053-054-241100-
...NORTHERN AND CENTRAL MISSOURI...

CITY           SKY/WX    TMP DP  RH WIND       PRES   REMARKS
ST. JOSEPH     CLEAR     65  65 100 CALM      29.93S
MOSBY          SUNNY     64  64 100 CALM      29.96R
WARRENSBURG    CLEAR     70  64  83 S3        29.97R
WHITEMAN AFB   CLEAR     70  70 100 S6        29.97R
CLINTON        CLEAR     68  64  88 CALM      29.98S
SEDALIA        CLEAR     68  66  93 S8        29.99S
WARSAW         NOT AVBL
CHILLICOTHE      N/A     69  66  90 CALM      29.98S
KIRKSVILLE     CLEAR     64  61  90 CALM      30.01R

$$

MOZ041-047>049-056>058-063>065-088>090-097-241100-
...EASTERN AND SOUTHERN MISSOURI...

CITY           SKY/WX    TMP DP  RH WIND       PRES   REMARKS
ST. LOUIS INTL CLEAR     72  64  76 NE6       30.03R
SPIRIT OF STL  CLEAR     66  64  93 CALM      30.01R
COLUMBIA       CLEAR     71  64  78 SE6       30.00S
JEFFERSON CITY CLEAR     68  63  84 SE3       29.99S
ROLLA          CLEAR     68  64  87 SE6       30.02S
OSAGE BEACH    CLEAR     67  63  87 SE3       30.01R
SPRINGFIELD    CLEAR     68  64  87 SE5       29.99S
BRANSON          N/A     68  64  88 CALM      30.01S
JOPLIN         CLEAR     71  67  87 SE5       29.97S
WEST PLAINS    CLEAR     65  62  90 CALM      30.04R

$$

IAZ060-094-KSZ022-034>040-054-083-096-NEZ052-066-093-241100-
...KANSAS...SOUTHEAST NEBRASKA AND IOWA...

CITY           SKY/WX    TMP DP  RH WIND       PRES   REMARKS
TOPEKA         CLEAR     68  66  93 CALM      29.93R
MANHATTAN      CLEAR     73  63  70 S6        29.90R
EMPORIA        CLEAR     69  62  78 SE10      29.93S
CHANUTE        CLEAR     68  64  87 SE6       29.95S
WICHITA        CLEAR     72  65  78 SE12      29.90R
OMAHA          MOCLDY    70  64  81 SE7       29.91S
LINCOLN        PTCLDY    68  62  81 S6        29.91R
FALLS CITY     CLEAR     68  65  90 SE5       29.91S
LAMONI         CLEAR     70  63  78 SE5       29.97S
DES MOINES     CLEAR     72  63  73 SE7       29.96S

$$





USA.gov is the U.S. government's official web portal to all federal, state and local government web resources and services.